Regional Weather Roundup
Issued by NWS Upton, NY

Current Version | Previous Version | Text Only | Print | Product List | Glossary On
Versions: 1 2 3 4 5 6 7 8 9 10 11 12 13 14 15 16 17 18 19 20 21 22 23 24 25 26 27
000
ASUS41 KOKX 181609
RWROKX

Regional Weather Roundup
National Weather Service New York NY
1100 AM EST THU JAN 18 2018

Note: "FAIR" indicates few or no clouds below 12,000 feet with no
significant weather and/or obstructions to visibility.

NYZ071-072-176-178-NJZ106-104-181700-
New York City Metro Area

CITY           SKY/WX    TMP DP  RH WIND       PRES   REMARKS
Central Park   FAIR      26   7  44 W8        30.06F WCI  18
Bronx Bot Gard   N/A     30   9  40 NW3       30.03F
Bronx Lehman C   N/A     28   9  43 W7          N/A  WCI  21
LaGuardia Arpt FAIR      28   8  43 NW10      30.04F WCI  19
Queens College   N/A     28   9  43 NW8         N/A  WCI  20
Kennedy Intl   FAIR      29   9  43 NW15      30.05F WCI  18
Breezy Point     N/A    N/A N/A N/A NW10G16     N/A
Brooklyn Coll    N/A     28   7  40 NW12        N/A  WCI  18
Staten Island    N/A     28   9  43 NW13        N/A  WCI  18
Newark/Liberty FAIR      29   7  39 NW16      30.06F WCI  17
Teterboro      FAIR      28   8  43 NW15      30.05S WCI  16
$$

NYZ177-179-078>081-181700-
Long Island New York

CITY           SKY/WX    TMP DP  RH WIND       PRES   REMARKS
Jones Beach      N/A    N/A N/A N/A NW10        N/A
Wantagh          N/A     28  10  47 W8          N/A  WCI  20
Matinecock Pt    N/A    N/A N/A N/A NW10        N/A
Farmingdale    FAIR      27  12  53 NW6       30.02F WCI  20
MacArthur/ISP  FAIR      29  14  53 NW14      30.00F WCI  18
Shirley        FAIR      29  14  53 N14       30.01F WCI  18
Mt Sinai Harb    N/A    N/A N/A N/A W7          N/A
Westhampton    FAIR      28  12  51 NW14      30.01F WCI  17
East Hampton   FAIR      28  13  55 NW8G16    29.97F WCI  19
Southold         N/A     28  16  59 NW12        N/A  WCI  18
Montauk          N/A     31  15  52 NW13      29.97F WCI  21
$$

NYZ052-065-067-181700-
Hudson Valley

CITY           SKY/WX    TMP DP  RH WIND       PRES   REMARKS
White Plains   FAIR      23  11  60 NW16      30.00F WCI  10
Larchmont Harb   N/A    N/A N/A N/A W12         N/A
Croton On Huds   N/A    N/A N/A N/A NW8         N/A
Somers           N/A     23  12  63 NW7         N/A  WCI  15
Brewster         N/A     23  12  63 N8          N/A  WCI  14
Newburgh       SUNNY     23  14  68 CALM      30.05S
Montgomery     FAIR      21   8  57 E3        30.03S
Otisville        N/A     23   7  50 W3          N/A
Warwick          N/A     23   7  50 NW12        N/A  WCI  12
Suffern          N/A     23   7  50 W12         N/A  WCI  12
Poughkeepsie   FAIR      20  12  71 N3        30.07R
Albany         PTSUNNY   20   8  60 NW14      30.07F WCI   7
$$

NJZ001-105-106-008-010-013-015-019>022-104-181700-
New Jersey

CITY           SKY/WX    TMP DP  RH WIND       PRES   REMARKS
Newark/Liberty FAIR      29   7  39 NW16      30.06F WCI  17
Teterboro      FAIR      28   8  43 NW15      30.05S WCI  16
Caldwell       FAIR      26   6  42 NW9       30.06F WCI  17
Somerville     FAIR      25  11  55 NW7       30.07F WCI  17
Linden         FAIR      28   9  45 NW16      30.06F WCI  16
Perth Amboy      N/A    N/A N/A N/A W14         N/A
Sussex         FAIR      23   7  50 VRB6      30.04F WCI  16
Andover          N/A     21   9  59 CALM      30.05F
Trenton        FAIR      26   8  46 NW14G21   30.07F WCI  14
Millville      FAIR      27  11  51 NW13      30.11F WCI  16
Atlantic City  FAIR      29  10  45 NW16G28   30.07F WCI  17
Wrightstown    FAIR      26  11  54 NW8       30.05F WCI  17
Toms River     FAIR      27  10  49 NW18G24   30.07F WCI  14
Belmar         FAIR      26  10  50 W16       30.05F WCI  14
$$

PAZ047>061-062-071-181700-
Eastern Pennsylvania

CITY           SKY/WX    TMP DP  RH WIND       PRES   REMARKS
Philadelphia   FAIR      28   5  37 NW14G23   30.11F WCI  17
Allentown      FAIR      24   6  46 W9        30.09F WCI  14
Scranton       FAIR      15   7  70 W8        30.06F WCI   4
$$

CTZ002-004>006-009-010-012-RIZ004-006-007-MAZ004-011-015-181700-
Southern New England

 In CT

CITY           SKY/WX    TMP DP  RH WIND       PRES   REMARKS
Bradley Intl   FAIR      26  12  55 NW3       30.00F
Hartford       FAIR      27  13  55 N8        30.02F WCI  19
Danbury        FAIR      22  10  60 NW13G18   30.02F WCI  10
Wtrbury/Oxford FAIR      24  14  65 NW8       29.97F WCI  15
Norwalk Harbor   N/A    N/A N/A N/A W7          N/A
Bridgeport     FAIR      29  12  49 VRB6      30.02F WCI  23
Meriden        FAIR      28  11  48 W8G20     30.00F WCI  20
New Haven      FAIR      30  12  47 NW9       30.00F WCI  22
Chester        FAIR      28  10  47 CALM      29.97F
Groton         FAIR      31  12  45 NW9       29.97F WCI  23
Willimantic    FAIR      27  13  55 NW12      29.98F WCI  17

 In RI

CITY           SKY/WX    TMP DP  RH WIND       PRES   REMARKS
Providence     FAIR      31  16  54 VRB3      29.97F
Block Island   FAIR      31  19  61 NW13      29.94F WCI  21
Westerly       FAIR      30  13  49 NW8       29.98F WCI  22

In MA

CITY           SKY/WX    TMP DP  RH WIND       PRES   REMARKS
Boston         FAIR      26  15  63 NW9       29.95F WCI  17
Worcester      FAIR      21  10  62 NW15      29.90F WCI   8
Westfield      FAIR      24  12  60 NW10      29.99F WCI  14
Provincetown   FAIR      33  22  63 MISG      29.92
Nantucket      CLOUDY    32  28  85 N12       29.91F WCI  23
$$

ANZ330-335-338-340-345-350-353-355-181700-
Coastal Marine Observations


STATION/POSITION TIME  SKY/WX   TEMP    WIND        PRES    VSBY  WAVE
                                AIR SEA DIR/SP/G                  HT/PER
                 (UTC)          (F)     (DEG/KT/KT) (MB)    (MI)  (FT/S)
NY Harb Entrance 1450            25 40  300/ 16/ 19 1017.9          4/11
20 S Fire Island 1450            26 42  330/ 16/ 19 1017.6          4/11
15 E Barnegat Li 1530               42                N/A           5/10
Hudson Canyon    1450            33 50  340/ 23/ 27 1014.7          7/ 6
Kings Point      1542            25 32   20/  5/  8 1018.5
Execution Rocks  NOT AVBL
Western LI Sound NOT AVBL
Central LI Sound 1530            25     290/  8/ 12   N/A           2
Robbins Reef     1548            25     300/ 15/ 16 1018.5
$$


>>>>>>>>>>>>>>>>>>>>>>>>>>>> KEY <<<<<<<<<<<<<<<<<<<<<<<<<<<
>                                                          <
>     SKY/WX - Sky Condition/Present Weather               <
>     TMP    - Temperature in Fahrenheit                   <
>     DP     - Dew Point in Fahrenheit                     <
>     RH     - Relative Humidity in Percent                <
>     WIND   - Direction (from) and Speed in MPH           <
>     PRES   - Mean Sea Level Pressure (inches of Hg)      <
>     WCI    - Wind Chill Index                            <
>     VSB    - Visibility in Miles                         <
>     HX     - Heat Index                                  <
>     TC     - Temperature in Celsius                      <
>     VRB    - Varibale Wind Direction                     <
>                                                          <
>>>>>>>>>>>>>>>>>>>>>>>>>>>> KEY <<<<<<<<<<<<<<<<<<<<<<<<<<<




USA.gov is the U.S. government's official web portal to all federal, state and local government web resources and services.